Flag for Germany Weather past 2 weeks in Bad Neuenahr-Ahrweiler, Rhineland-Palatinate, Germany

Now
89 °F

Partly sunny.


Feels Like: 86 °F
Forecast: 61 / 74 °F
Wind: 6 mph from Southwest

Location: Bonn-Hangelar

Current Time: Aug 3, 2015 at 5:39:47 PM

Latest Report: Aug 3, 2015 at 5:00 PM


Visibility: 7 mi

Pressure: 29.91 "Hg

Humidity: 26%

Dew point: 50 °F

Location of Bad Neuenahr-AhrweilerLocation

Historic Weather in Bad Neuenahr-Ahrweiler — Graph

°F

Bad Neuenahr-Ahrweiler temperature yesterday

Maximum temperature yesterday: 78 °F (at 6:00 PM)
Minimum temperature yesterday: 53 °F (at 5:00 AM)
Average temperature yesterday: 68 °F

Past Weeks' High & Low Weather Summary

 TemperatureHumidityPressure
High88 °F (Aug 3, 4:00 PM)100% (Jul 25, 6:00 PM)30.16 "Hg (Jul 25, 6:00 PM)
Low46 °F (Jul 31, 5:00 AM)29% (Aug 3, 4:00 PM)29.50 "Hg (Jul 25, 7:00 AM)
Average63 °F75%29.91 "Hg
* Reported Jul 19 4:00 PM — Aug 3 4:00 PM, Bad Neuenahr-Ahrweiler, Weather by CustomWeather, © 2015

Note: Actual official high and low records may vary slightly from our data, if they occured in-between our weather recording intervals... More about our weather records

Advertising

Bad Neuenahr-Ahrweiler weather history for previous 24 hours

 ConditionsComfort  
Time TempWeatherWind HumidityBarometerVisibility
4:00 PM
Mon, Aug 3
88 °FSunny.3 mph29%29.91 "Hg12 mi
3:00 PM88 °FPartly sunny.6 mph30%29.93 "Hg9 mi
2:00 PM87 °FScattered clouds.6 mph31%29.94 "Hg10 mi
1:00 PM86 °FScattered clouds.8 mph32%29.95 "Hg6 mi
12:00 PM84 °FSunny.7 mph37%29.95 "Hg6 mi
11:00 AM82 °FSunny.8 mph43%29.96 "Hg6 mi
10:00 AM80 °FSunny.8 mph44%29.95 "Hg6 mi
9:00 AM76 °FSunny.7 mph44%29.96 "Hg6 mi
8:00 AM74 °FSunny.7 mph45%29.95 "Hg8 mi
7:00 AM72 °FSunny.7 mph45%29.96 "Hg14 mi
6:00 AM69 °FSunny.6 mph49%29.96 "Hg25 mi
5:00 AM69 °FClear.6 mph50%29.96 "Hg25 mi
4:00 AM65 °FPassing clouds.3 mph57%29.99 "Hg22 mi
3:00 AM68 °FOvercast.6 mph52%29.99 "Hg25 mi
2:00 AM67 °FOvercast.3 mph60%30.01 "Hg22 mi
1:00 AM63 °FOvercast.3 mph72%30.01 "Hg18 mi
11:00 PM
Sun, Aug 2
63 °FOvercast.5 mph69%30.03 "Hg16 mi
10:00 PM65 °FOvercast.3 mph65%30.03 "Hg18 mi
9:00 PM70 °FOvercast.5 mph52%30.02 "Hg19 mi
8:00 PM75 °FOvercast.5 mph43%30.02 "Hg25 mi
7:00 PM78 °FOvercast.5 mph38%30.03 "Hg19 mi
6:00 PM78 °FOvercast.5 mph36%30.04 "Hg22 mi
5:00 PM77 °FOvercast.3 mph40%30.06 "Hg22 mi
Weather by CustomWeather, © 2015

See weather overviewHow to use our weather pages